Tracking 27188 objects as of 1-Apr-2023
HD Live streaming from Space Station
objects crossing your sky now

STARLINK-1992

Track STARLINK-1992 now!
10-day predictions
STARLINK-1992 is classified as:


NORAD ID: 47632
Int'l Code: 2021-012N
Perigee: 553.3 km
Apogee: 555.5 km
Inclination: 53.1 °
Period: 95.6 minutes
Semi major axis: 6925 km
RCS: Unknown
Launch date: February 16, 2021
Source: United States (US)
Launch site: AIR FORCE EASTERN TEST RANGE (AFETR)
Your satellite tracking list
Your tracking list is empty




NASA's NSSDC Master Catalog

Two Line Element Set (TLE):
1 47632U 21012N   23091.44786783  .00012521  00000-0  85826-3 0  9993
2 47632  53.0531 114.5862 0001646  82.1793 277.9383 15.06386958119039
Source of the keplerian elements: AFSPC